Tracking 30970 objects as of 3-Jul-2025
HD Live streaming from Space Station
objects crossing your sky now

CHINASAT 5B (SINOSAT 1)

Track CHINASAT 5B (SINOSAT 1) now!
CHINASAT 5B (SINOSAT 1) is classified as:


NORAD ID: 25404
Int'l Code: 1998-044A
Perigee: 36,082.5 km
Apogee: 36,111.5 km
Inclination: 10.2 °
Period: 1,451.6 minutes
Semi major axis: 42468 km
RCS: 25.1188 m2 (large)
Launch date: July 18, 1998
Source: People's Republic of China (PRC)
Launch site: Xichang Space Center, China (XSC)

11 C-band, broadcasting, business services, direct-to-home TV broadcasting, telecommunications, VSAT networks; Asia Pacific region.
Your satellite tracking list
Your tracking list is empty




NASA's NSSDC Master Catalog

Two Line Element Set (TLE):
1 25404U 98044A   25183.91666980 -.00000255  00000-0  00000-0 0  9997
2 25404  10.2377  48.3086 0003416 210.3751 317.8381  0.99199625 98445
Source of the keplerian elements: AFSPC